BEL2556 EPWA-EBBR

Flight info

Callsign BEL2556
Flight time 1h 49m
Altitude 38000
Route LOLSI DCT DIBLO DCT INDIG DCT GOVEN DCT MAG DCT TOLGI DCT ABAMI Z717 NEREL T855 BATTY
Aircraft A319/M-SDE3FGHIRWY/LB1

Departure

Time 2026-05-01 11:30
Airport Warsaw Chopin Airport (EPWA)

Arrival

Time 2026-05-01 13:20
Airport Brussels Airport (EBBR)
Time Latitude Longitude Altitude Speed Heading
2026-05-01 11:00 52.17213 20.96970 337 ft 0 kts 62°
2026-05-01 11:20 52.17210 20.96961 337 ft 2 kts 61°
2026-05-01 11:20 52.17203 20.96939 336 ft 2 kts 62°
2026-05-01 11:21 52.17196 20.96918 336 ft 2 kts 61°
2026-05-01 11:21 52.17191 20.96904 335 ft 2 kts 62°
2026-05-01 11:21 52.17186 20.96881 335 ft 2 kts 84°
2026-05-01 11:21 52.17186 20.96857 334 ft 2 kts 100°
2026-05-01 11:22 52.17191 20.96833 334 ft 2 kts 117°
2026-05-01 11:22 52.17199 20.96813 334 ft 2 kts 134°
2026-05-01 11:22 52.17211 20.96797 334 ft 2 kts 150°
2026-05-01 11:22 52.17221 20.96789 334 ft 0 kts 153°
2026-05-01 11:23 52.17222 20.96788 334 ft 0 kts 152°
2026-05-01 11:24 52.17221 20.96789 334 ft 1 kts 152°
2026-05-01 11:25 52.17195 20.96811 334 ft 6 kts 152°
2026-05-01 11:25 52.17075 20.96918 333 ft 12 kts 152°
2026-05-01 11:25 52.16984 20.96998 333 ft 17 kts 153°
2026-05-01 11:26 52.16888 20.97109 336 ft 16 kts 128°
2026-05-01 11:26 52.16692 20.97252 337 ft 15 kts 181°
2026-05-01 11:26 52.16596 20.97300 337 ft 15 kts 121°
2026-05-01 11:27 52.16550 20.97465 337 ft 16 kts 113°
2026-05-01 11:27 52.16502 20.97635 337 ft 17 kts 116°
2026-05-01 11:27 52.16458 20.97777 336 ft 8 kts 134°
2026-05-01 11:27 52.16400 20.97791 335 ft 5 kts 204°
2026-05-01 11:28 52.16387 20.97781 335 ft 0 kts 206°
2026-05-01 11:28 52.16386 20.97780 335 ft 0 kts 206°
2026-05-01 11:28 52.16380 20.97776 334 ft 3 kts 206°
2026-05-01 11:29 52.16316 20.97631 334 ft 0 kts 294°
2026-05-01 11:30 52.16367 20.97448 337 ft 53 kts 294°
2026-05-01 11:30 52.16630 20.96518 334 ft 123 kts 294°
2026-05-01 11:30 52.17045 20.94994 518 ft 161 kts 296°
2026-05-01 11:30 52.17491 20.93383 1230 ft 157 kts 296°
2026-05-01 11:31 52.17923 20.91792 1954 ft 157 kts 295°
2026-05-01 11:31 52.18351 20.90223 2623 ft 154 kts 296°
2026-05-01 11:31 52.18575 20.88523 3179 ft 164 kts 268°
2026-05-01 11:31 52.18482 20.86600 3652 ft 179 kts 270°
2026-05-01 11:32 52.18480 20.84483 4148 ft 195 kts 272°
2026-05-01 11:32 52.18499 20.82141 4599 ft 217 kts 272°
2026-05-01 11:32 52.18509 20.79606 5122 ft 235 kts 272°
2026-05-01 11:32 52.18511 20.76840 5625 ft 253 kts 272°
2026-05-01 11:33 52.18504 20.73907 6177 ft 267 kts 272°
2026-05-01 11:33 52.18492 20.70818 6896 ft 272 kts 272°
2026-05-01 11:33 52.18472 20.67737 7710 ft 275 kts 272°
2026-05-01 11:33 52.18452 20.64657 8488 ft 278 kts 272°
2026-05-01 11:34 52.18431 20.61522 9238 ft 284 kts 272°
2026-05-01 11:34 52.18410 20.58284 10038 ft 287 kts 272°
2026-05-01 11:34 52.18388 20.55009 10658 ft 298 kts 273°
2026-05-01 11:34 52.18367 20.51560 11091 ft 314 kts 273°
2026-05-01 11:35 52.18343 20.47897 11479 ft 332 kts 273°
2026-05-01 11:35 52.18316 20.44042 11840 ft 348 kts 274°
2026-05-01 11:35 52.18285 20.40029 12174 ft 362 kts 274°
2026-05-01 11:35 52.18251 20.35856 12770 ft 370 kts 274°
2026-05-01 11:36 52.18216 20.31690 13481 ft 374 kts 273°
2026-05-01 11:36 52.18177 20.27421 14129 ft 378 kts 274°
2026-05-01 11:36 52.18136 20.23159 14769 ft 382 kts 274°
2026-05-01 11:36 52.18091 20.18889 15715 ft 377 kts 274°
2026-05-01 11:37 52.18045 20.14696 16724 ft 368 kts 274°
2026-05-01 11:37 52.18002 20.10585 17463 ft 369 kts 275°
2026-05-01 11:37 52.17961 20.06350 18093 ft 374 kts 275°
2026-05-01 11:37 52.17917 20.02127 18701 ft 379 kts 275°
2026-05-01 11:38 52.17873 19.97833 19308 ft 383 kts 276°
2026-05-01 11:38 52.17859 19.93455 19899 ft 387 kts 276°
2026-05-01 11:38 52.17854 19.89024 20472 ft 392 kts 277°
2026-05-01 11:38 52.17850 19.84576 21065 ft 394 kts 277°
2026-05-01 11:39 52.17843 19.80149 21630 ft 397 kts 277°
2026-05-01 11:39 52.17834 19.75662 22192 ft 400 kts 276°
2026-05-01 11:39 52.17821 19.71095 22742 ft 403 kts 276°
2026-05-01 11:39 52.17806 19.66551 23281 ft 406 kts 276°
2026-05-01 11:40 52.17789 19.61913 23822 ft 410 kts 277°
2026-05-01 11:40 52.17770 19.57296 24346 ft 413 kts 277°
2026-05-01 11:40 52.17749 19.52674 24852 ft 416 kts 277°
2026-05-01 11:40 52.17725 19.47923 25353 ft 419 kts 277°
2026-05-01 11:41 52.17700 19.43237 25834 ft 422 kts 276°
2026-05-01 11:41 52.17673 19.38428 26314 ft 424 kts 276°
2026-05-01 11:41 52.17643 19.33642 26774 ft 427 kts 276°
2026-05-01 11:41 52.17612 19.28807 27208 ft 431 kts 276°
2026-05-01 11:42 52.17578 19.23945 27638 ft 434 kts 276°
2026-05-01 11:42 52.17542 19.19034 28063 ft 436 kts 276°
2026-05-01 11:42 52.17503 19.14094 28473 ft 439 kts 276°
2026-05-01 11:42 52.17461 19.09097 28876 ft 442 kts 275°
2026-05-01 11:43 52.17418 19.04076 29271 ft 445 kts 275°
2026-05-01 11:43 52.17372 18.99043 29657 ft 448 kts 275°
2026-05-01 11:43 52.17324 18.94033 30050 ft 451 kts 275°
2026-05-01 11:44 52.17219 18.83761 30829 ft 456 kts 275°
2026-05-01 11:44 52.17163 18.78595 31208 ft 459 kts 275°
2026-05-01 11:44 52.17105 18.73396 31554 ft 461 kts 275°
2026-05-01 11:44 52.17044 18.68232 31956 ft 461 kts 275°
2026-05-01 11:45 52.16980 18.63039 32428 ft 459 kts 275°
2026-05-01 11:45 52.16913 18.57852 32883 ft 456 kts 275°
2026-05-01 11:45 52.16846 18.52750 33305 ft 455 kts 275°
2026-05-01 11:45 52.16778 18.47630 33716 ft 454 kts 275°
2026-05-01 11:46 52.16708 18.42542 34116 ft 453 kts 275°
2026-05-01 11:46 52.16634 18.37434 34523 ft 452 kts 275°
2026-05-01 11:46 52.16560 18.32347 34916 ft 450 kts 274°
2026-05-01 11:46 52.16483 18.27268 35287 ft 449 kts 274°
2026-05-01 11:47 52.16404 18.22195 35643 ft 448 kts 274°
2026-05-01 11:47 52.16323 18.17191 35991 ft 447 kts 274°
2026-05-01 11:47 52.16239 18.12143 36323 ft 446 kts 274°
2026-05-01 11:47 52.16154 18.07115 36627 ft 445 kts 274°
2026-05-01 11:48 52.16068 18.02079 36892 ft 445 kts 274°
2026-05-01 11:48 52.15980 17.97096 37124 ft 446 kts 274°
2026-05-01 11:48 52.15889 17.92052 37330 ft 447 kts 274°
2026-05-01 11:48 52.15794 17.87005 37531 ft 448 kts 274°
2026-05-01 11:49 52.15698 17.81962 37728 ft 449 kts 274°
2026-05-01 11:49 52.15598 17.76848 37923 ft 450 kts 274°
2026-05-01 11:49 52.15498 17.71811 38093 ft 451 kts 274°
2026-05-01 11:49 52.15395 17.66738 38262 ft 451 kts 274°
2026-05-01 11:50 52.15181 17.56570 38389 ft 452 kts 273°
2026-05-01 11:50 52.14957 17.46326 38390 ft 451 kts 273°
2026-05-01 11:51 52.14728 17.36235 38390 ft 450 kts 273°
2026-05-01 11:51 52.14537 17.28092 38361 ft 450 kts 272°
2026-05-01 11:52 52.14291 17.17940 38349 ft 449 kts 272°
2026-05-01 11:52 52.14038 17.07849 38353 ft 449 kts 272°
2026-05-01 11:53 52.13775 16.97722 38356 ft 448 kts 272°
2026-05-01 11:53 52.13504 16.87628 38360 ft 448 kts 272°
2026-05-01 11:54 52.13225 16.77538 38361 ft 447 kts 272°
2026-05-01 11:54 52.12939 16.67504 38360 ft 447 kts 272°
2026-05-01 11:55 52.12643 16.57451 38360 ft 447 kts 271°
2026-05-01 11:55 52.12339 16.47376 38360 ft 446 kts 271°
2026-05-01 11:56 52.12027 16.37317 38360 ft 446 kts 271°
2026-05-01 11:56 52.11708 16.27324 38358 ft 446 kts 271°
2026-05-01 11:57 52.11433 16.18926 38358 ft 446 kts 271°
2026-05-01 11:57 52.11039 16.07186 38357 ft 447 kts 271°
2026-05-01 11:58 52.10692 15.97158 38357 ft 447 kts 271°
2026-05-01 11:59 52.10158 15.82087 38357 ft 447 kts 271°
2026-05-01 11:59 52.09793 15.72082 38358 ft 447 kts 271°
2026-05-01 12:00 52.09225 15.56987 38359 ft 446 kts 270°
2026-05-01 12:01 52.08638 15.41941 38359 ft 446 kts 270°
2026-05-01 12:01 52.08237 15.31884 38360 ft 446 kts 270°
2026-05-01 12:02 52.07830 15.21891 38361 ft 446 kts 270°
2026-05-01 12:02 52.07408 15.11790 38361 ft 445 kts 270°
2026-05-01 12:03 52.06985 15.01816 38361 ft 445 kts 269°
2026-05-01 12:03 52.06549 14.91777 38362 ft 444 kts 269°
2026-05-01 12:04 52.06105 14.81777 38363 ft 444 kts 269°
2026-05-01 12:04 52.05779 14.71824 38365 ft 442 kts 272°
2026-05-01 12:05 52.05680 14.61824 38368 ft 442 kts 272°
2026-05-01 12:05 52.05530 14.46958 38375 ft 442 kts 272°
2026-05-01 12:06 52.05415 14.36999 38377 ft 442 kts 272°
2026-05-01 12:06 52.05290 14.26990 38380 ft 442 kts 271°
2026-05-01 12:07 52.05156 14.17006 38384 ft 442 kts 271°
2026-05-01 12:07 52.05014 14.07028 38388 ft 442 kts 271°
2026-05-01 12:08 52.04863 13.96975 38389 ft 442 kts 271°
2026-05-01 12:08 52.04704 13.87007 38389 ft 442 kts 271°
2026-05-01 12:09 52.04537 13.77049 38387 ft 442 kts 271°
2026-05-01 12:09 52.04360 13.67020 38387 ft 442 kts 271°
2026-05-01 12:10 52.04082 13.52033 38390 ft 441 kts 271°
2026-05-01 12:11 52.03613 13.37130 38392 ft 441 kts 269°
2026-05-01 12:11 52.03219 13.27252 38391 ft 441 kts 269°
2026-05-01 12:12 52.02828 13.17349 38391 ft 441 kts 269°
2026-05-01 12:12 52.02434 13.07459 38389 ft 440 kts 269°
2026-05-01 12:13 52.02037 12.97622 38389 ft 439 kts 269°
2026-05-01 12:13 52.01632 12.87792 38389 ft 439 kts 269°
2026-05-01 12:14 52.01217 12.77906 38389 ft 438 kts 269°
2026-05-01 12:14 52.00796 12.68083 38389 ft 437 kts 268°
2026-05-01 12:15 52.00369 12.58314 38390 ft 437 kts 268°
2026-05-01 12:15 51.99932 12.48509 38391 ft 436 kts 268°
2026-05-01 12:16 51.99488 12.38740 38391 ft 436 kts 268°
2026-05-01 12:16 51.99038 12.28983 38388 ft 436 kts 268°
2026-05-01 12:17 51.98580 12.19214 38386 ft 436 kts 268°
2026-05-01 12:17 51.98114 12.09467 38391 ft 436 kts 268°
2026-05-01 12:18 51.97638 11.99689 38397 ft 436 kts 267°
2026-05-01 12:18 51.97156 11.89941 38401 ft 436 kts 267°
2026-05-01 12:19 51.96666 11.80212 38404 ft 435 kts 268°
2026-05-01 12:19 51.96167 11.70484 38406 ft 435 kts 268°
2026-05-01 12:20 51.95660 11.60692 38407 ft 435 kts 268°
2026-05-01 12:20 51.95147 11.50961 38408 ft 435 kts 268°
2026-05-01 12:21 51.94624 11.41223 38410 ft 435 kts 268°
2026-05-01 12:21 51.94094 11.31503 38410 ft 435 kts 266°
2026-05-01 12:22 51.93556 11.21768 38409 ft 435 kts 266°
2026-05-01 12:22 51.93010 11.12050 38420 ft 435 kts 266°
2026-05-01 12:23 51.92457 11.02327 38416 ft 433 kts 266°
2026-05-01 12:23 51.91897 10.92654 38386 ft 432 kts 266°
2026-05-01 12:24 51.91331 10.83027 38378 ft 432 kts 266°
2026-05-01 12:24 51.90757 10.73377 38383 ft 432 kts 266°
2026-05-01 12:25 51.89880 10.58918 38394 ft 431 kts 266°
2026-05-01 12:26 51.89290 10.49329 38402 ft 431 kts 266°
2026-05-01 12:26 51.88384 10.34861 38400 ft 430 kts 265°
2026-05-01 12:27 51.87461 10.20405 38391 ft 429 kts 265°
2026-05-01 12:28 51.86521 10.05992 38385 ft 429 kts 265°
2026-05-01 12:29 51.85569 9.91653 38383 ft 429 kts 265°
2026-05-01 12:29 51.84603 9.77356 38379 ft 429 kts 265°
2026-05-01 12:30 51.83613 9.63002 38378 ft 429 kts 264°
2026-05-01 12:31 51.82812 9.53544 38371 ft 429 kts 260°
2026-05-01 12:31 51.81399 9.44207 38363 ft 430 kts 256°
2026-05-01 12:32 51.79819 9.34944 38360 ft 430 kts 255°
2026-05-01 12:32 51.77425 9.20976 38359 ft 430 kts 255°
2026-05-01 12:33 51.75833 9.11724 38359 ft 430 kts 255°
2026-05-01 12:33 51.74234 9.02482 38360 ft 430 kts 255°
2026-05-01 12:34 51.72624 8.93221 38362 ft 430 kts 255°
2026-05-01 12:34 51.71011 8.83995 38361 ft 430 kts 255°
2026-05-01 12:35 51.69392 8.74783 38358 ft 429 kts 255°
2026-05-01 12:35 51.67761 8.65548 38357 ft 429 kts 255°
2026-05-01 12:36 51.66122 8.56320 38356 ft 429 kts 255°
2026-05-01 12:36 51.64479 8.47116 38357 ft 429 kts 255°
2026-05-01 12:37 51.62841 8.37980 38358 ft 429 kts 255°
2026-05-01 12:37 51.61189 8.28813 38357 ft 429 kts 254°
2026-05-01 12:38 51.59530 8.19657 38355 ft 428 kts 254°
2026-05-01 12:38 51.57864 8.10499 38352 ft 428 kts 254°
2026-05-01 12:39 51.56187 8.01333 38349 ft 428 kts 254°
2026-05-01 12:39 51.54504 7.92175 38343 ft 428 kts 254°
2026-05-01 12:40 51.52805 7.82981 38334 ft 428 kts 254°
2026-05-01 12:40 51.51118 7.73888 38328 ft 428 kts 254°
2026-05-01 12:41 51.49412 7.64742 38320 ft 428 kts 254°
2026-05-01 12:41 51.47710 7.55654 38312 ft 428 kts 254°
2026-05-01 12:42 51.45991 7.46532 38307 ft 428 kts 254°
2026-05-01 12:42 51.44211 7.37473 38306 ft 428 kts 251°
2026-05-01 12:43 51.41867 7.28741 38306 ft 429 kts 243°
2026-05-01 12:43 51.38870 7.20517 38308 ft 429 kts 236°
2026-05-01 12:44 51.35366 7.12832 38308 ft 429 kts 233°
2026-05-01 12:45 51.28247 6.97629 38309 ft 428 kts 233°
2026-05-01 12:45 51.24707 6.90086 38300 ft 428 kts 233°
2026-05-01 12:46 51.21125 6.82476 38067 ft 424 kts 233°
2026-05-01 12:46 51.19370 6.78756 37680 ft 421 kts 233°
2026-05-01 12:46 51.17615 6.75039 37224 ft 420 kts 233°
2026-05-01 12:47 51.15860 6.71322 36819 ft 417 kts 233°
2026-05-01 12:47 51.14107 6.67618 36376 ft 415 kts 233°
2026-05-01 12:47 51.12388 6.63996 35792 ft 416 kts 233°
2026-05-01 12:47 51.10637 6.60313 35147 ft 417 kts 233°
2026-05-01 12:48 51.08822 6.56755 34491 ft 419 kts 230°
2026-05-01 12:48 51.06845 6.53334 33823 ft 421 kts 226°
2026-05-01 12:48 51.04762 6.50030 33094 ft 422 kts 225°
2026-05-01 12:48 51.02694 6.46765 32350 ft 424 kts 225°
2026-05-01 12:49 51.00596 6.43455 31580 ft 426 kts 225°
2026-05-01 12:49 50.98507 6.40162 30840 ft 426 kts 225°
2026-05-01 12:49 50.96415 6.36867 30248 ft 422 kts 225°
2026-05-01 12:49 50.94339 6.33601 29668 ft 419 kts 225°
2026-05-01 12:50 50.92270 6.30351 29069 ft 416 kts 225°
2026-05-01 12:50 50.90224 6.27139 28467 ft 413 kts 225°
2026-05-01 12:50 50.88193 6.23955 27884 ft 410 kts 225°
2026-05-01 12:50 50.86167 6.20782 27313 ft 407 kts 224°
2026-05-01 12:51 50.84180 6.17671 26757 ft 403 kts 224°
2026-05-01 12:51 50.82196 6.14572 26203 ft 400 kts 224°
2026-05-01 12:51 50.78276 6.08462 25078 ft 393 kts 224°
2026-05-01 12:52 50.76334 6.05441 24511 ft 390 kts 224°
2026-05-01 12:52 50.72706 5.99182 23417 ft 384 kts 229°
2026-05-01 12:52 50.70951 5.95960 22880 ft 381 kts 229°
2026-05-01 12:53 50.67566 5.89609 21830 ft 375 kts 236°
2026-05-01 12:53 50.66522 5.85893 21295 ft 373 kts 257°
2026-05-01 12:53 50.66352 5.81836 20800 ft 370 kts 277°
2026-05-01 12:54 50.67032 5.77956 20298 ft 367 kts 295°
2026-05-01 12:54 50.69356 5.70822 19319 ft 363 kts 298°
2026-05-01 12:54 50.70518 5.67304 18823 ft 360 kts 297°
2026-05-01 12:55 50.72799 5.60292 17833 ft 358 kts 297°
2026-05-01 12:55 50.73924 5.56799 17364 ft 355 kts 297°
2026-05-01 12:55 50.75032 5.53340 16882 ft 354 kts 297°
2026-05-01 12:56 50.76135 5.49889 16425 ft 352 kts 296°
2026-05-01 12:56 50.77230 5.46455 15987 ft 350 kts 296°
2026-05-01 12:56 50.78329 5.43002 15547 ft 348 kts 296°
2026-05-01 12:56 50.79408 5.39604 15099 ft 346 kts 296°
2026-05-01 12:57 50.80494 5.36180 14658 ft 344 kts 296°
2026-05-01 12:57 50.82606 5.29507 13734 ft 340 kts 295°
2026-05-01 12:57 50.83659 5.26172 13155 ft 334 kts 295°
2026-05-01 12:58 50.84695 5.22891 12449 ft 333 kts 295°
2026-05-01 12:58 50.85725 5.19611 11881 ft 326 kts 295°
2026-05-01 12:58 50.86689 5.16538 11509 ft 306 kts 295°
2026-05-01 12:59 50.88765 5.11008 10953 ft 284 kts 321°
2026-05-01 12:59 50.90530 5.09789 10744 ft 271 kts 358°
2026-05-01 12:59 50.93480 5.12198 10370 ft 234 kts 64°
2026-05-01 13:00 50.93977 5.16957 9746 ft 219 kts 108°
2026-05-01 13:00 50.93314 5.19090 9410 ft 216 kts 130°
2026-05-01 13:01 50.91008 5.21902 8764 ft 213 kts 168°
2026-05-01 13:01 50.89542 5.21900 8454 ft 215 kts 192°
2026-05-01 13:01 50.87225 5.19039 7835 ft 223 kts 241°
2026-05-01 13:02 50.86877 5.16621 7516 ft 230 kts 269°
2026-05-01 13:07 50.90115 4.56565 3721 ft 267 kts 271°
2026-05-01 13:07 50.90261 4.53629 3555 ft 270 kts 274°
2026-05-01 13:07 50.90501 4.50695 3434 ft 270 kts 275°
2026-05-01 13:08 50.90763 4.47761 3313 ft 270 kts 276°
2026-05-01 13:08 50.91031 4.44794 3194 ft 270 kts 276°
2026-05-01 13:08 50.91293 4.41869 3093 ft 270 kts 276°
2026-05-01 13:08 50.91556 4.38911 3001 ft 270 kts 276°
2026-05-01 13:09 50.91820 4.35981 3008 ft 270 kts 276°
2026-05-01 13:09 50.92089 4.33003 3008 ft 271 kts 275°
2026-05-01 13:09 50.92354 4.30038 2995 ft 270 kts 275°
2026-05-01 13:09 50.92612 4.27087 2990 ft 270 kts 275°
2026-05-01 13:10 50.92869 4.24126 2987 ft 271 kts 275°
2026-05-01 13:10 50.93122 4.21164 2987 ft 271 kts 275°
2026-05-01 13:10 50.93380 4.18201 2988 ft 271 kts 275°
2026-05-01 13:10 50.93337 4.15251 2970 ft 262 kts 249°
2026-05-01 13:11 50.92459 4.12942 2976 ft 238 kts 220°
2026-05-01 13:11 50.91225 4.11341 2984 ft 219 kts 214°
2026-05-01 13:11 50.90060 4.09926 2972 ft 204 kts 213°
2026-05-01 13:11 50.88926 4.08726 2955 ft 185 kts 199°
2026-05-01 13:12 50.87725 4.08273 2972 ft 177 kts 179°
2026-05-01 13:12 50.86514 4.08508 2981 ft 175 kts 160°
2026-05-01 13:12 50.85397 4.09245 2990 ft 174 kts 154°
2026-05-01 13:12 50.84298 4.10052 2984 ft 174 kts 154°
2026-05-01 13:13 50.83197 4.10858 3021 ft 169 kts 154°
2026-05-01 13:13 50.82215 4.11706 3003 ft 151 kts 140°
2026-05-01 13:13 50.81596 4.12906 2964 ft 138 kts 119°
2026-05-01 13:13 50.81304 4.14352 2976 ft 140 kts 100°
2026-05-01 13:14 50.81360 4.15897 2984 ft 145 kts 80°
2026-05-01 13:14 50.81723 4.17393 2988 ft 147 kts 71°
2026-05-01 13:14 50.82149 4.18862 2988 ft 147 kts 70°
2026-05-01 13:14 50.82583 4.20338 3003 ft 147 kts 70°
2026-05-01 13:15 50.83011 4.21806 3000 ft 147 kts 70°
2026-05-01 13:15 50.83442 4.23293 2980 ft 147 kts 70°
2026-05-01 13:15 50.83863 4.24755 2948 ft 147 kts 70°
2026-05-01 13:15 50.84296 4.26238 2798 ft 147 kts 70°
2026-05-01 13:16 50.84723 4.27690 2630 ft 141 kts 70°
2026-05-01 13:16 50.85117 4.29028 2431 ft 132 kts 71°
2026-05-01 13:16 50.85497 4.30349 2272 ft 131 kts 71°
2026-05-01 13:17 50.86622 4.34258 1764 ft 130 kts 71°
2026-05-01 13:17 50.86995 4.35554 1596 ft 130 kts 70°
2026-05-01 13:18 50.87765 4.38151 1286 ft 129 kts 69°
2026-05-01 13:18 50.88147 4.39433 1064 ft 129 kts 69°
2026-05-01 13:18 50.88518 4.40714 868 ft 128 kts 70°
2026-05-01 13:18 50.88878 4.42013 757 ft 128 kts 70°
2026-05-01 13:19 50.89238 4.43298 577 ft 128 kts 69°
2026-05-01 13:19 50.89606 4.44588 393 ft 127 kts 68°
2026-05-01 13:19 50.90311 4.47032 192 ft 102 kts 65°
2026-05-01 13:20 50.90539 4.47816 192 ft 62 kts 65°
2026-05-01 13:20 50.90648 4.48223 191 ft 24 kts 84°
2026-05-01 13:20 50.90603 4.48436 191 ft 11 kts 118°
2026-05-01 13:21 50.90523 4.48588 191 ft 6 kts 191°
2026-05-01 13:21 50.90490 4.48531 191 ft 8 kts 243°
2026-05-01 13:21 50.90463 4.48439 191 ft 10 kts 246°
2026-05-01 13:21 50.90427 4.48314 191 ft 13 kts 244°
2026-05-01 13:22 50.90388 4.48184 191 ft 7 kts 245°
2026-05-01 13:22 50.90346 4.48166 191 ft 6 kts 157°
2026-05-01 13:22 50.90303 4.48198 191 ft 7 kts 157°
2026-05-01 13:22 50.90293 4.48205 191 ft 0 kts 155°